Time,TemperatureF,DewpointF,PressureIn,WindDirection,WindDirectionDegrees,WindSpeedMPH,WindSpeedGustMPH,Humidity,HourlyPrecipIn,Conditions,Clouds,dailyrainin,SoftwareType,DateUTC
2013-11-24 00:12:00,18.0,15.0,30.61,NNW,347,1.0,4.0,86,0.00,,,0.00,,2013-11-24 05:12:00,
2013-11-24 00:23:00,18.0,15.0,30.61,NNW,338,1.0,4.0,87,0.00,,,0.00,,2013-11-24 05:23:00,
2013-11-24 00:43:00,18.0,15.0,30.61,NNW,328,2.0,3.0,87,0.00,,,0.00,,2013-11-24 05:43:00,
2013-11-24 00:53:00,18.0,15.0,30.61,NNW,336,1.0,3.0,87,0.00,,,0.00,,2013-11-24 05:53:00,
2013-11-24 01:12:00,18.0,15.0,30.60,NNE,32,2.0,5.0,87,0.00,,,0.00,,2013-11-24 06:12:00,
2013-11-24 01:22:00,18.0,15.0,30.60,NW,321,3.0,5.0,87,0.00,,,0.00,,2013-11-24 06:22:00,
2013-11-24 01:42:00,18.0,15.0,30.59,NNE,14,2.0,5.0,87,0.00,,,0.00,,2013-11-24 06:42:00,
2013-11-24 01:52:00,18.0,15.0,30.59,WNW,300,1.0,4.0,88,0.00,,,0.00,,2013-11-24 06:52:00,
2013-11-24 02:11:00,17.0,14.0,30.60,North,352,0.0,2.0,89,0.00,,,0.00,,2013-11-24 07:11:00,
2013-11-24 02:22:00,17.0,14.0,30.60,NNE,25,0.0,3.0,88,0.00,,,0.00,,2013-11-24 07:22:00,
2013-11-24 02:42:00,17.0,14.0,30.60,North,350,1.0,4.0,88,0.00,,,0.00,,2013-11-24 07:42:00,
2013-11-24 02:52:00,17.0,14.0,30.60,NNE,26,1.0,4.0,88,0.00,,,0.00,,2013-11-24 07:52:00,
2013-11-24 03:22:00,18.0,15.0,30.61,NE,40,1.0,5.0,88,0.00,,,0.00,,2013-11-24 08:22:00,
2013-11-24 03:42:00,18.0,15.0,30.61,NW,307,1.0,3.0,87,0.00,,,0.00,,2013-11-24 08:42:00,
2013-11-24 03:53:00,17.0,14.0,30.61,NNW,344,0.0,2.0,88,0.00,,,0.00,,2013-11-24 08:53:00,
2013-11-24 04:12:00,17.0,14.0,30.61,NNW,338,0.0,1.0,89,0.00,,,0.00,,2013-11-24 09:12:00,
2013-11-24 04:22:00,17.0,14.0,30.61,NNW,336,1.0,2.0,89,0.00,,,0.00,,2013-11-24 09:22:00,
2013-11-24 04:43:00,17.0,15.0,30.61,NNW,328,0.0,2.0,90,0.00,,,0.00,,2013-11-24 09:43:00,
2013-11-24 04:54:00,16.0,14.0,30.61,WNW,300,0.0,1.0,91,0.00,,,0.00,,2013-11-24 09:54:00,
2013-11-24 05:23:00,15.0,13.0,30.61,WNW,300,0.0,1.0,92,0.00,,,0.00,,2013-11-24 10:23:00,
2013-11-24 05:43:00,14.0,12.0,30.61,SW,221,0.0,1.0,93,0.00,,,0.00,,2013-11-24 10:43:00,
2013-11-24 05:53:00,14.0,12.0,30.61,SW,221,0.0,0.0,93,0.00,,,0.00,,2013-11-24 10:53:00,
2013-11-24 06:22:00,13.0,12.0,30.61,SW,221,0.0,0.0,94,0.00,,,0.00,,2013-11-24 11:22:00,
2013-11-24 06:43:00,13.0,12.0,30.61,SW,221,0.0,0.0,94,0.00,,,0.00,,2013-11-24 11:43:00,
2013-11-24 06:53:00,13.0,11.0,30.61,SW,221,0.0,0.0,93,0.00,,,0.00,,2013-11-24 11:53:00,
2013-11-24 07:12:00,13.0,12.0,30.61,SW,221,0.0,0.0,94,0.00,,,0.00,,2013-11-24 12:12:00,
2013-11-24 07:22:00,13.0,12.0,30.62,SW,221,0.0,0.0,94,0.00,,,0.00,,2013-11-24 12:22:00,
2013-11-24 07:42:00,14.0,13.0,30.62,WSW,237,0.0,0.0,94,0.00,,,0.00,,2013-11-24 12:42:00,
2013-11-24 07:53:00,15.0,14.0,30.63,SW,236,0.0,0.0,94,0.00,,,0.00,,2013-11-24 12:53:00,
2013-11-24 08:12:00,14.0,12.0,30.63,SW,236,0.0,0.0,93,0.00,,,0.00,,2013-11-24 13:12:00,
2013-11-24 08:22:00,14.0,12.0,30.64,SSW,207,0.0,1.0,93,0.00,,,0.00,,2013-11-24 13:22:00,
2013-11-24 08:42:00,15.0,14.0,30.64,SW,224,0.0,2.0,94,0.00,,,0.00,,2013-11-24 13:42:00,
2013-11-24 08:52:00,16.0,15.0,30.64,WSW,254,1.0,2.0,94,0.00,,,0.00,,2013-11-24 13:52:00,
2013-11-24 09:11:00,17.0,15.0,30.65,West,262,1.0,4.0,93,0.00,,,0.00,,2013-11-24 14:11:00,
2013-11-24 09:22:00,17.0,15.0,30.65,WSW,258,2.0,8.0,90,0.00,,,0.00,,2013-11-24 14:22:00,
2013-11-24 09:42:00,17.0,15.0,30.66,SW,222,1.0,5.0,90,0.00,,,0.00,,2013-11-24 14:42:00,
2013-11-24 09:53:00,17.0,14.0,30.67,WNW,284,2.0,5.0,89,0.00,,,0.00,,2013-11-24 14:53:00,
2013-11-24 10:12:00,18.0,15.0,30.67,West,274,3.0,7.0,88,0.00,,,0.00,,2013-11-24 15:12:00,
2013-11-24 10:22:00,19.0,15.0,30.67,WSW,246,2.0,8.0,85,0.00,,,0.00,,2013-11-24 15:22:00,
2013-11-24 10:44:00,19.0,15.0,30.67,West,279,3.0,6.0,83,0.00,,,0.00,,2013-11-24 15:44:00,
2013-11-24 10:53:00,20.0,16.0,30.67,West,281,3.0,6.0,84,0.00,,,0.00,,2013-11-24 15:53:00,
2013-11-24 11:13:00,21.0,16.0,30.67,WSW,247,4.0,8.0,82,0.00,,,0.00,,2013-11-24 16:13:00,
2013-11-24 11:23:00,22.0,17.0,30.67,WNW,300,5.0,9.0,80,0.00,,,0.00,,2013-11-24 16:23:00,
2013-11-24 11:43:00,21.0,16.0,30.66,West,259,4.0,9.0,79,0.00,,,0.00,,2013-11-24 16:43:00,
2013-11-24 11:53:00,22.0,16.0,30.66,NW,318,3.0,8.0,79,0.00,,,0.00,,2013-11-24 16:53:00,
2013-11-24 12:12:00,22.0,16.0,30.66,WSW,247,4.0,8.0,78,0.00,,,0.00,,2013-11-24 17:12:00,
2013-11-24 12:23:00,23.0,17.0,30.65,NW,324,3.0,10.0,78,0.00,,,0.00,,2013-11-24 17:23:00,
2013-11-24 12:43:00,23.0,17.0,30.64,West,259,5.0,10.0,77,0.00,,,0.00,,2013-11-24 17:43:00,
2013-11-24 12:52:00,23.0,17.0,30.64,West,271,4.0,8.0,76,0.00,,,0.00,,2013-11-24 17:52:00,
2013-11-24 13:12:00,23.0,16.0,30.63,WNW,294,4.0,8.0,75,0.00,,,0.00,,2013-11-24 18:12:00,
2013-11-24 13:22:00,23.0,16.0,30.63,NW,319,4.0,11.0,73,0.00,,,0.00,,2013-11-24 18:22:00,
2013-11-24 13:42:00,24.0,16.0,30.62,NW,310,3.0,9.0,72,0.00,,,0.00,,2013-11-24 18:42:00,
2013-11-24 13:53:00,24.0,15.0,30.62,NW,313,6.0,10.0,69,0.00,,,0.00,,2013-11-24 18:53:00,
2013-11-24 14:12:00,24.0,16.0,30.61,WNW,295,4.0,9.0,70,0.00,,,0.00,,2013-11-24 19:12:00,
2013-11-24 14:22:00,24.0,15.0,30.60,West,263,4.0,10.0,67,0.00,,,0.00,,2013-11-24 19:22:00,
2013-11-24 14:42:00,24.0,14.0,30.60,West,281,5.0,10.0,66,0.00,,,0.00,,2013-11-24 19:42:00,
2013-11-24 14:52:00,25.0,16.0,30.59,West,276,3.0,7.0,67,0.00,,,0.00,,2013-11-24 19:52:00,
2013-11-24 15:11:00,24.0,15.0,30.58,West,280,2.0,8.0,67,0.00,,,0.00,,2013-11-24 20:11:00,
2013-11-24 15:22:00,23.0,14.0,30.58,West,268,2.0,6.0,68,0.00,,,0.00,,2013-11-24 20:22:00,
2013-11-24 15:42:00,24.0,15.0,30.57,NW,304,3.0,6.0,67,0.00,,,0.00,,2013-11-24 20:42:00,
2013-11-24 15:52:00,26.0,16.0,30.58,WNW,293,2.0,7.0,64,0.00,,,0.00,,2013-11-24 20:52:00,
2013-11-24 16:11:00,26.0,15.0,30.58,NW,312,2.0,7.0,62,0.00,,,0.00,,2013-11-24 21:11:00,
2013-11-24 16:22:00,24.0,14.0,30.58,WNW,289,2.0,6.0,65,0.00,,,0.00,,2013-11-24 21:22:00,
2013-11-24 16:43:00,25.0,15.0,30.58,WNW,291,2.0,6.0,64,0.00,,,0.00,,2013-11-24 21:43:00,
2013-11-24 16:54:00,25.0,15.0,30.57,West,274,3.0,5.0,64,0.00,,,0.00,,2013-11-24 21:54:00,
2013-11-24 17:13:00,25.0,15.0,30.56,West,276,1.0,3.0,64,0.00,,,0.00,,2013-11-24 22:13:00,
2013-11-24 17:23:00,24.0,15.0,30.55,West,274,0.0,3.0,67,0.00,,,0.00,,2013-11-24 22:23:00,
2013-11-24 17:43:00,23.0,15.0,30.55,West,264,0.0,1.0,70,0.00,,,0.00,,2013-11-24 22:43:00,
2013-11-24 17:53:00,22.0,14.0,30.55,WNW,296,0.0,0.0,70,0.00,,,0.00,,2013-11-24 22:53:00,
2013-11-24 18:12:00,21.0,14.0,30.55,West,266,0.0,0.0,73,0.00,,,0.00,,2013-11-24 23:12:00,
2013-11-24 18:22:00,21.0,14.0,30.55,SW,227,0.0,1.0,74,0.00,,,0.00,,2013-11-24 23:22:00,
2013-11-24 18:42:00,19.0,14.0,30.54,SW,227,0.0,0.0,82,0.00,,,0.00,,2013-11-24 23:42:00,
2013-11-24 18:52:00,19.0,16.0,30.54,SW,227,0.0,0.0,86,0.00,,,0.00,,2013-11-24 23:52:00,
2013-11-24 19:12:00,19.0,13.0,30.54,SSW,205,0.0,3.0,78,0.00,,,0.00,,2013-11-25 00:12:00,
2013-11-24 19:22:00,20.0,13.0,30.54,SSW,204,1.0,2.0,75,0.00,,,0.00,,2013-11-25 00:22:00,
2013-11-24 19:42:00,20.0,13.0,30.53,SW,221,0.0,2.0,73,0.00,,,0.00,,2013-11-25 00:42:00,
2013-11-24 19:52:00,20.0,11.0,30.53,SSW,213,1.0,2.0,69,0.00,,,0.00,,2013-11-25 00:52:00,
2013-11-24 20:11:00,20.0,11.0,30.52,SW,233,1.0,3.0,67,0.00,,,0.00,,2013-11-25 01:11:00,
2013-11-24 20:22:00,20.0,11.0,30.52,SW,236,1.0,4.0,66,0.00,,,0.00,,2013-11-25 01:22:00,
2013-11-24 20:42:00,20.0,10.0,30.51,SSW,204,2.0,4.0,64,0.00,,,0.00,,2013-11-25 01:42:00,
2013-11-24 20:52:00,20.0,10.0,30.50,SSW,206,0.0,2.0,64,0.00,,,0.00,,2013-11-25 01:52:00,
2013-11-24 21:12:00,19.0,9.0,30.51,SW,225,1.0,3.0,65,0.00,,,0.00,,2013-11-25 02:12:00,
2013-11-24 21:22:00,19.0,9.0,30.51,SW,224,1.0,4.0,65,0.00,,,0.00,,2013-11-25 02:22:00,
2013-11-24 21:42:00,19.0,9.0,30.50,SW,231,1.0,4.0,64,0.00,,,0.00,,2013-11-25 02:42:00,
2013-11-24 21:52:00,19.0,9.0,30.50,SW,226,2.0,3.0,63,0.00,,,0.00,,2013-11-25 02:52:00,
2013-11-24 22:11:00,19.0,9.0,30.49,SW,226,1.0,4.0,63,0.00,,,0.00,,2013-11-25 03:11:00,
2013-11-24 22:22:00,19.0,9.0,30.49,SSW,203,1.0,3.0,63,0.00,,,0.00,,2013-11-25 03:22:00,
2013-11-24 22:43:00,19.0,9.0,30.49,SSW,212,1.0,4.0,63,0.00,,,0.00,,2013-11-25 03:43:00,
2013-11-24 22:53:00,19.0,9.0,30.49,SW,215,2.0,5.0,63,0.00,,,0.00,,2013-11-25 03:53:00,
2013-11-24 23:13:00,19.0,9.0,30.48,SW,219,1.0,4.0,63,0.00,,,0.00,,2013-11-25 04:13:00,
2013-11-24 23:23:00,19.0,9.0,30.48,SW,219,1.0,4.0,63,0.00,,,0.00,,2013-11-25 04:23:00,
2013-11-24 23:43:00,19.0,9.0,30.47,SSW,203,2.0,4.0,65,0.00,,,0.00,,2013-11-25 04:43:00,
2013-11-24 23:53:00,18.0,8.0,30.47,SW,231,1.0,5.0,65,0.00,,,0.00,,2013-11-25 04:53:00,